Tracking 29747 objects as of 9-Oct-2024
HD Live streaming from Space Station
objects crossing your sky now

SL-14 DEB

Track SL-14 DEB now!
10-day predictions


NORAD ID: 45287
Int'l Code: 1991-056Z
Perigee: 1,089.8 km
Apogee: 1,202.1 km
Inclination: 82.6 °
Period: 108.1 minutes
Semi major axis: 7516 km
RCS: Unknown
Launch date: August 15, 1991
Source: Commonwealth of Independent States (former USSR) (CIS)
Launch site: PLESETSK MISSILE AND SPACE COMPLEX (PKMTR)

Note: This is SATELLITE DEBRIS
Your satellite tracking list
Your tracking list is empty




NASA's NSSDC Master Catalog

Two Line Element Set (TLE):
1 45287U 91056Z   24282.74972481  .00002286  00000-0  46428-2 0  9991
2 45287  82.5733 187.2834 0074667  55.3015 305.5120 13.32104815225427
Source of the keplerian elements: AFSPC